Location: Mactaquac Provincial Park
(45.9573°N, 66.8897°W)
Time: 22:10:23
(UTC-03:00)

Cosmos 1867 - Visible Passes

Search period start: 31 March 2015 00:00
Search period end: 10 April 2015 00:00
Orbit: 778 x 798 km, 65.0° (Epoch: 31 March)

Date Brightness Start Highest point End Pass type
(mag) Time Alt. Az. Time Alt. Az. Time Alt. Az.
31 Mar 3.6 20:46:00 10° NW 20:51:30 81° NE 20:56:57 10° SE visible
31 Mar 5.8 22:30:57 10° WNW 22:34:31 17° WSW 22:37:42 11° SSW visible
01 Apr 5.5 21:58:45 10° WNW 22:03:04 23° WSW 22:07:14 10° SSW visible
02 Apr 5.2 21:26:48 10° NW 21:31:35 31° WSW 21:36:17 10° S visible
03 Apr 4.8 20:54:57 10° NW 21:00:05 42° WSW 21:05:08 10° S visible
04 Apr 4.3 20:23:11 10° NW 20:28:33 56° WSW 20:33:50 10° SSE visible
05 Apr 6.4 21:37:52 10° W 21:39:46 11° WSW 21:41:21 10° WSW visible
06 Apr 6.2 21:04:58 10° WNW 21:08:21 16° WSW 21:11:29 10° SW visible
07 Apr 6.0 20:32:44 10° WNW 20:36:54 22° WSW 20:40:54 10° SSW visible
